Vernal, UT

4:46 AM MDT on August 20, 2019 (GMT -0600)
Vernal

Weather History for KVEL - July, 2019

Change the Weather History Date:

Tuesday, July 16, 2019

  Actual Average Record
Temperature  
Mean Temperature 77 °F 73 °F  
Max Temperature 95 °F 88 °F 102 °F (2010)
Min Temperature 59 °F 57 °F 41 °F (1950)
Degree Days  
Heating Degree Days 0 0  
Month to date heating degree days 0 2  
Since 1 June heating degree days 69 74  
Since 1 July heating degree days 0 2  
Cooling Degree Days 12 8  
Month to date cooling degree days 134 106  
Year to date cooling degree days 182 197  
Since 1 June cooling degree days 181 188  
Growing Degree Days 28 (Base 50)    
Moisture  
Dew Point 35 °F    
Average Humidity 25    
Maximum Humidity 40    
Minimum Humidity 9    
Precipitation  
Precipitation 0.00 in 0.02 in 0.57 in (1975)
Month to date precipitation T 0.29  
Year to date precipitation 7.72 4.50  
Sea Level Pressure  
Sea Level Pressure 29.77 in    
Wind  
Wind Speed 5 mph (WSW)    
Max Wind Speed 20 mph    
Max Gust Speed 26 mph    
Visibility 10 miles    
Events      
T = Trace of Precipitation, MM = Missing Value Source: NWS Daily Summary

Daily Weather History Graph

Daily Weather History Graph

Search for Another Location

Airport or City:

Astronomy

Jul. 16, 2019 Rise Set
Actual Time 6:01 AM MDT 8:46 PM MDT
Civil Twilight 5:29 AM MDT 9:18 PM MDT
Nautical Twilight 4:48 AM MDT 9:58 PM MDT
Astronomical Twilight 4:02 AM MDT 10:44 PM MDT
Moon 8:55 PM MDT (7/16) 5:42 AM MDT (7/16)
Length of Visible Light 15h 49m
Length of Day
14h 45m
Full, 100% of the Moon is Illuminated
Jul 16
Full
Jul 16
Full
Jul 24
Last Quarter
Jul 31
New
Aug 7
First Quarter

Hourly Weather History & Observations

Time (MDT) Temp. Dew Point Humidity Pressure Visibility Wind Dir Wind Speed Gust Speed Precip Events Conditions
12:53 AM 66.9 °F 39.0 °F 36% 29.80 in 10.0 mi West 4.6 mph - N/A   Clear
1:53 AM 69.1 °F 32.0 °F 25% 29.79 in 10.0 mi WNW 5.8 mph - N/A   Clear
2:53 AM 62.1 °F 35.1 °F 37% 29.79 in 10.0 mi WSW 3.5 mph - N/A   Clear
3:53 AM 64.9 °F 33.1 °F 31% 29.78 in 10.0 mi NW 4.6 mph - N/A   Clear
4:53 AM 63.0 °F 35.1 °F 35% 29.80 in 10.0 mi West 3.5 mph - N/A   Clear
5:53 AM 61.0 °F 36.0 °F 39% 29.82 in 10.0 mi Calm Calm - N/A   Clear
6:46 AM 63.0 °F 37.9 °F 40% 30.05 in 10.0 mi WSW 3.5 mph - N/A   Partly Cloudy
6:53 AM 64.0 °F 39.9 °F 41% 29.82 in 10.0 mi West 3.5 mph - N/A   Partly Cloudy
7:53 AM 72.0 °F 36.0 °F 27% 29.82 in 10.0 mi Calm Calm - N/A   Clear
8:53 AM 75.0 °F 42.1 °F 31% 29.85 in 10.0 mi South 6.9 mph - N/A   Clear
9:53 AM 79.0 °F 39.9 °F 25% 29.86 in 10.0 mi Variable 4.6 mph - N/A   Clear
10:53 AM 81.0 °F 41.0 °F 24% 29.85 in 10.0 mi Variable 3.5 mph - N/A   Clear
11:53 AM 84.9 °F 37.9 °F 19% 29.83 in 10.0 mi North - - N/A   Clear
12:53 PM 90.0 °F 30.9 °F 12% 29.80 in 10.0 mi Variable 5.8 mph - N/A   Clear
1:53 PM 93.0 °F 28.0 °F 10% 29.76 in 10.0 mi SSW 9.2 mph - N/A   Clear
2:53 PM 93.0 °F 26.1 °F 9% 29.75 in 10.0 mi West 6.9 mph - N/A   Clear
3:53 PM 93.9 °F 28.0 °F 10% 29.71 in 10.0 mi SSW 12.7 mph 25.3 mph N/A   Clear
4:53 PM 95.0 °F 28.0 °F 9% 29.69 in 10.0 mi West 15.0 mph 24.2 mph N/A   Clear
5:53 PM 93.9 °F 30.0 °F 10% 29.67 in 10.0 mi North - - N/A   Clear
6:53 PM 93.0 °F 30.9 °F 11% 29.65 in 10.0 mi South 3.5 mph - N/A   Clear
7:53 PM 89.1 °F 37.0 °F 16% 29.64 in 10.0 mi West 3.5 mph - N/A   Clear
8:53 PM 82.0 °F 39.0 °F 22% 29.66 in 10.0 mi West 4.6 mph - N/A   Clear
9:53 PM 80.1 °F 32.0 °F 17% 29.67 in 10.0 mi NW 6.9 mph - N/A   Clear
10:53 PM 73.9 °F 32.0 °F 21% 29.69 in 10.0 mi NW 4.6 mph - N/A   Clear
11:53 PM 68.0 °F 39.0 °F 35% 29.70 in 10.0 mi SW 4.6 mph - N/A   Clear